TimeMST,TemperatureF,Dew PointF,Humidity,Sea Level PressureIn,VisibilityMPH,Wind Direction,Wind SpeedMPH,Gust SpeedMPH,PrecipitationIn,Events,Conditions,WindDirDegrees,DateUTC
12:56 AM,1.9,-4.0,76,30.07,-9999.0,NW,5.8,-,N/A,,Unknown,310,2014-02-08 07:56:00
1:56 AM,1.0,-5.1,75,30.07,-9999.0,NW,4.6,-,N/A,,Unknown,310,2014-02-08 08:56:00
2:56 AM,-0.0,-5.1,79,30.06,-9999.0,North,4.6,-,N/A,,Unknown,360,2014-02-08 09:56:00
3:56 AM,-2.0,-6.0,83,30.08,-9999.0,WNW,6.9,-,N/A,,Unknown,300,2014-02-08 10:56:00
4:56 AM,-2.9,-7.1,82,30.12,-9999.0,West,6.9,-,N/A,,Unknown,280,2014-02-08 11:56:00
5:56 AM,-0.9,-5.1,83,30.11,-9999.0,West,4.6,-,N/A,,Unknown,280,2014-02-08 12:56:00
6:56 AM,-0.0,-5.1,79,30.11,-9999.0,WNW,5.8,-,N/A,,Unknown,290,2014-02-08 13:56:00
7:56 AM,-0.0,-6.0,76,30.12,-9999.0,West,4.6,-,N/A,,Unknown,280,2014-02-08 14:56:00
8:56 AM,3.0,-4.0,73,30.13,-9999.0,NNW,6.9,-,N/A,,Unknown,330,2014-02-08 15:56:00
9:56 AM,6.1,-2.0,69,30.14,-9999.0,North,11.5,-,N/A,,Unknown,350,2014-02-08 16:56:00
10:56 AM,8.1,-0.9,67,30.17,-9999.0,NNW,9.2,-,N/A,,Unknown,340,2014-02-08 17:56:00
11:56 AM,10.0,-0.0,64,30.19,-9999.0,WNW,8.1,-,N/A,,Unknown,300,2014-02-08 18:56:00
12:56 PM,12.9,1.9,62,30.18,-9999.0,NW,11.5,-,N/A,,Unknown,320,2014-02-08 19:56:00
1:56 PM,14.0,1.9,59,30.19,-9999.0,NNW,10.4,-,N/A,,Unknown,330,2014-02-08 20:56:00
2:56 PM,14.0,3.0,62,30.22,-9999.0,NNW,13.8,-,N/A,,Unknown,340,2014-02-08 21:56:00
3:56 PM,12.9,3.0,65,30.27,-9999.0,NNW,11.5,-,N/A,,Unknown,330,2014-02-08 22:56:00
4:56 PM,12.0,3.0,67,30.30,-9999.0,NNW,10.4,-,N/A,,Unknown,340,2014-02-08 23:56:00
5:56 PM,10.9,3.0,70,30.33,-9999.0,NNW,9.2,-,N/A,,Unknown,330,2014-02-09 00:56:00
6:56 PM,8.1,1.0,73,30.36,-9999.0,NW,10.4,-,N/A,,Unknown,310,2014-02-09 01:56:00
7:56 PM,6.1,-0.0,76,30.39,-9999.0,NW,13.8,-,N/A,,Unknown,320,2014-02-09 02:56:00
8:56 PM,5.0,-0.9,76,30.42,-9999.0,NW,15.0,-,N/A,,Unknown,310,2014-02-09 03:56:00
9:56 PM,1.9,-2.9,80,30.43,-9999.0,NW,13.8,-,N/A,,Unknown,310,2014-02-09 04:56:00
10:56 PM,-0.0,-5.1,79,30.44,-9999.0,NW,5.8,-,N/A,,Unknown,310,2014-02-09 05:56:00
11:56 PM,-0.0,-6.0,76,30.43,-9999.0,NNW,13.8,-,N/A,,Unknown,330,2014-02-09 06:56:00